This is the latest recevied weather packets stored in our database for station/object W2IRT. If no packets are shown the sender has not sent any weather packets the latest 10 day(s).
| Time | Temp. | Humidity | Pressure | Rain* | Wind** | Luminosity | Snow |
|---|---|---|---|---|---|---|---|
| 1778279116 | 15.56° C | 54% | 1011 hPa | 0 mm | - | - | - |
| 1778278816 | 15.56° C | 56% | 1011.1 hPa | 0 mm | - | - | - |
| 1778278516 | 15.56° C | 56% | 1010.9 hPa | 0 mm | - | - | - |
| 1778278216 | 15.56° C | 53% | 1011 hPa | 0 mm | - | - | - |
| 1778277916 | 15.56° C | 54% | 1011 hPa | 0 mm | - | - | - |
| 1778277616 | 15.56° C | 53% | 1010.9 hPa | 0 mm | - | - | - |
| 1778277316 | 15.56° C | 52% | 1010.9 hPa | 0 mm | - | - | - |
| 1778277016 | 15.56° C | 54% | 1011 hPa | 0 mm | - | - | - |
| 1778276716 | 15.56° C | 53% | 1010.9 hPa | 0 mm | - | - | - |
| 1778276416 | 15.56° C | 52% | 1011 hPa | 0 mm | - | - | - |
| 1778276116 | 15.56° C | 51% | 1010.9 hPa | 0 mm | - | - | - |
| 1778275816 | 15.56° C | 53% | 1010.9 hPa | 0 mm | - | - | - |
| 1778275516 | 16.11° C | 53% | 1010.8 hPa | 0 mm | - | - | - |
| 1778275232 | 16.11° C | 54% | 1010.8 hPa | 0 mm | - | - | - |
| 1778274916 | 16.11° C | 55% | 1011 hPa | 0 mm | - | - | - |
| 1778274616 | 16.11° C | 52% | 1011 hPa | 0 mm | - | - | - |
| 1778274316 | 16.11° C | 51% | 1011.1 hPa | 0 mm | - | - | - |
| 1778274016 | 16.11° C | 52% | 1011.1 hPa | 0 mm | - | - | - |
| 1778273716 | 16.11° C | 51% | 1011.3 hPa | 0 mm | - | - | - |
| 1778273416 | 16.11° C | 48% | 1011.3 hPa | 0 mm | - | - | - |
| 1778273116 | 16.67° C | 50% | 1011.3 hPa | 0 mm | - | - | - |
| 1778272816 | 16.67° C | 49% | 1011.1 hPa | 0 mm | - | - | - |
| 1778272516 | 16.67° C | 47% | 1010.9 hPa | 0 mm | - | - | - |
| 1778272216 | 16.67° C | 44% | 1011 hPa | 0 mm | - | - | - |
| 1778271916 | 16.11° C | 46% | 1010.9 hPa | 0 mm | - | - | - |
* Rain latest hour (hover to see other rain measurements)
** Current wind speed in m/s (hover to see current wind gust speed)